TimeCDT,TemperatureF,Dew PointF,Humidity,Sea Level PressureIn,VisibilityMPH,Wind Direction,Wind SpeedMPH,Gust SpeedMPH,PrecipitationIn,Events,Conditions,WindDirDegrees,DateUTC
12:52 AM,41.0,34.0,76,29.98,-9999.0,North,23.0,29.9,N/A,,Unknown,350,2012-10-19 05:52:00
1:52 AM,41.0,33.1,73,29.98,-9999.0,NNW,21.9,27.6,N/A,,Unknown,340,2012-10-19 06:52:00
2:52 AM,39.9,33.1,77,29.98,-9999.0,North,13.8,25.3,N/A,,Unknown,350,2012-10-19 07:52:00
3:52 AM,39.9,33.1,77,29.97,-9999.0,North,11.5,17.3,N/A,,Unknown,350,2012-10-19 08:52:00
4:52 AM,39.0,33.1,79,29.96,-9999.0,North,10.4,19.6,N/A,,Unknown,350,2012-10-19 09:52:00
5:52 AM,39.0,33.1,79,29.96,-9999.0,North,8.1,-,N/A,,Unknown,360,2012-10-19 10:52:00
6:52 AM,37.9,30.9,76,29.96,-9999.0,NNW,12.7,-,N/A,,Unknown,340,2012-10-19 11:52:00
7:52 AM,37.0,30.9,79,29.96,-9999.0,NNW,10.4,-,N/A,,Unknown,330,2012-10-19 12:52:00
8:52 AM,37.0,30.9,79,29.95,-9999.0,North,5.8,-,N/A,,Unknown,350,2012-10-19 13:52:00
9:52 AM,37.9,30.9,76,29.94,-9999.0,North,5.8,-,N/A,,Unknown,350,2012-10-19 14:52:00
10:52 AM,39.0,32.0,76,29.93,-9999.0,NW,4.6,-,N/A,,Unknown,310,2012-10-19 15:52:00
11:52 AM,39.0,32.0,76,29.90,-9999.0,Calm,Calm,-,N/A,,Unknown,0,2012-10-19 16:52:00
12:52 PM,41.0,33.1,73,29.89,-9999.0,Calm,Calm,-,N/A,,Unknown,0,2012-10-19 17:52:00
1:52 PM,42.1,33.1,70,29.84,-9999.0,Calm,Calm,-,N/A,,Unknown,0,2012-10-19 18:52:00
2:52 PM,43.0,35.1,74,29.82,-9999.0,South,4.6,-,N/A,,Unknown,180,2012-10-19 19:52:00
3:52 PM,44.1,34.0,68,29.79,-9999.0,South,5.8,-,N/A,,Unknown,180,2012-10-19 20:52:00
4:52 PM,45.0,35.1,68,29.77,-9999.0,SE,8.1,-,N/A,,Unknown,140,2012-10-19 21:52:00
5:52 PM,44.1,34.0,68,29.74,-9999.0,ESE,8.1,-,N/A,,Unknown,120,2012-10-19 22:52:00
6:52 PM,43.0,35.1,74,29.73,-9999.0,SE,6.9,-,N/A,,Unknown,130,2012-10-19 23:52:00
7:52 PM,41.0,35.1,79,29.74,-9999.0,SE,6.9,-,N/A,,Unknown,130,2012-10-20 00:52:00
8:52 PM,41.0,35.1,79,29.72,-9999.0,SE,8.1,-,N/A,,Unknown,140,2012-10-20 01:52:00
9:52 PM,39.9,35.1,83,29.70,-9999.0,SE,8.1,-,N/A,,Unknown,140,2012-10-20 02:52:00
10:52 PM,39.9,34.0,79,29.69,-9999.0,SSE,10.4,-,N/A,,Unknown,150,2012-10-20 03:52:00
11:52 PM,39.0,34.0,82,29.67,-9999.0,SSE,8.1,-,N/A,,Unknown,150,2012-10-20 04:52:00